Marlboro, VT (05344)

8:14 AM EDT on May 25, 2017 (GMT -0400)
Lower Lake Raponda Rd | | Change Station
Active Advisory: Wind Advisory

Elev 1867 ft 42.87 °N, 72.82 °W | Updated 23 seconds ago

Mostly Cloudy
Mostly Cloudy
50.9 °F
Feels Like 50.9 °F
N
2.0
Wind Variable Wind from NW

Today
High -- | Low -- °F
--% Chance of Precip.
Yesterday
High -- | Low -- °F
Precip. -- in
Pressure 29.92 in
Visibility 10.0 miles
Clouds Clear
Dew Point 45 °F
Humidity 81%
Rainfall 0.00 in
Snow Depth Not available.
5:19 AM 8:17 PM
Waning Crescent, 0% visible
METAR KEEN 251156Z AUTO 00000KT 10SM -RA CLR 13/09 A2987 RMK AO2 RAB52 SLP132 P0000 60000 T01280094 10128 20089 50001
Pressure 29.92 in
Visibility 10.0 miles
Clouds Clear
Dew Point 45 °F
Humidity 81%
Rainfall 0.00 in
Snow Depth Not available.
5:19 AM 8:17 PM
Waning Crescent, 0% visible
METAR KEEN 251156Z AUTO 00000KT 10SM -RA CLR 13/09 A2987 RMK AO2 RAB52 SLP132 P0000 60000 T01280094 10128 20089 50001

Get Your Daily Forecast Email!

Thanks for signing up!

Be on the lookout for a verification email in your inbox.

You'll start receiving severe weather alerts in your inbox..

×

10-Day Weather Forecast

Almanac

Astronomy

May. 25, 2017 Rise Set
Actual Time
Civil Twilight
Nautical Twilight
Astronomical Twilight
Moon
Length of Visible Light
Length of Day
Tomorrow will be .
, % of the Moon is Illuminated

Today's Extremes

State Highs State Lows

Community

WunderPhotos

Category 6

Welcome to Category 6. This is the collective home for Weather Underground's featured writeups by Dr. Jeff Masters (right), Bob Henson (left), Chris Burt, and other regular contributors.

Nearby

Air Quality

  Air Quality AQ Index Pollutant
Not available.

Snow Depth

Station Depth Elevation

Earthquake Activity

City Distance Mag. Time & Date
Minimum magnitude displayed is 2.5.

Coastal Water Temperatures

Place Temperature

Stations

Nearby Weather Stations

Station Location Temp. Windchill Dew Point Humidity Wind Precip. Elev Updated Type
                   

Watches & Warnings

Wind Advisory
Issued: 3:49 AM EDT May. 25, 2017 – National Weather Service

... Wind Advisory remains in effect from 10 am this morning to
9 PM EDT this evening...

* locations... northern Berkshires of western Massachusetts and
the southern Green Mountains of southern Vermont including
Bennington and western Windham counties.

* Winds... east to southeast at 15 to 25 mph with gusts up to 50
mph.

* Timing... gusty winds will develop late this morning and
continue into the afternoon.

* Impacts... isolated to scattered downed trees and tree limbs,
downed wires and isolated power outages.

Precautionary/preparedness actions...

A Wind Advisory means that winds of 46 to 57 mph are expected.
Winds this strong are capable of Downing small tree limbs and
branches, possibly causing isolated power outages. Winds this
strong can make driving difficult... especially for high profile
vehicles. Use extra caution.